Other Public Products
Issued by NWS Charleston, SC

Current Version | Previous Version | Text Only | Print | Product List | Glossary Off
Versions: 1 2 3 4 5 6 7 8 9 10 11 12 13 14 15 16 17 18 19 20 21 22 23 24 25 26 27 28 29 30 31 32 33 34 35 36 37 38 39 40 41 42 43 44 45 46 47 48 49 50

833
FPUS82 KCHS 211612
OPUCHS

TEST...KCHS/KSAV Gateway Observations...TEST
National Weather Service Charleston SC
1200 PM EDT FRI JUL 21 2017

NOTE: "fair" indicates few or no clouds below 12,000 feet with no
significant weather and/or obstructions to visibility.

SCZ050-WAZ558-NCZ071-TXZ119-213-PAZ071-DCZ001-FLZ074-172-MI076-
NYZ176-178-MAZ016-IL014-TNZ027-NJZ106-GAZ044-MD014-211700-

...Gateway Observations for Charleston International...

CITY           SKY/WX    TMP DP  RH WIND       PRES   REMARKS
Chas Airport   MOSUNNY   89  72  56 SW7       30.06S HX  96
Seattle        PTSUNNY   62  54  74 W5        30.16S
Charlotte      MOSUNNY   92  70  48 VRB5      30.06S HX  97
Dallas DFW     MOSUNNY   93  71  48 SW9       30.01F HX 100
Dallas Love    MOSUNNY   93  69  45 S7        30.02F HX  98
Philladelphia  PTSUNNY   90  67  46 NW5       29.93F HX  93
Wash National  MOSUNNY   91  70  49 E5        29.95F HX  96
Baltimore      MOSUNNY   91  70  49 NW5       29.94S HX  96
Miami          CLOUDY    87  75  67 NW12G18   30.09R THUNDER HX  96
Detroit        PTSUNNY   85  69  58 NE7       29.99F
Newark         MOSUNNY   90  65  43 NW10G21   29.91S HX  92
Laguardia      MOSUNNY   87  68  52 NW12      29.89F HX  90
J F K          MOSUNNY   90  67  46 W9        29.90F HX  93
Boston Logan   MOSUNNY   86  55  34 W10       29.84F
Ft. Lauderdale MOSUNNY   89  77  67 SE12      30.07S THUNDER HX 101
Chicago O`Hare CLOUDY    84  69  60 SE8       30.00R
Chicago Midway CLOUDY    84  70  62 VRB5      30.00R
Houston Bush   PTSUNNY   88  75  65 CALM      30.05F HX  97
Houston Hobby  MOSUNNY   91  74  57 VRB5      30.05S HX 100
Nashville      PTSUNNY   92  73  53 VRB3      30.07F HX 100
Atlanta        MOSUNNY   89  72  56 SW6       30.08S HX  96

$$

GAZ044-118-TXZ119-213-NCZ071-DCZ001-MDZ014-506-PAZ021-071-NJZ106-
NYZ176-178-MAZ106-OHZ011-021-055-MIZ076-KYZ091-ILZ014-INZ047-
MNZ060-ONZ431-211700-

...Gateway Observations for Savannah International...

CITY           SKY/WX    TMP DP  RH WIND       PRES   REMARKS
Savannah Arpt  MOSUNNY   90  74  59 VRB6      30.07S HX  99
Atlanta        MOSUNNY   89  72  56 SW6       30.08S HX  96
Charlotte      MOSUNNY   92  70  48 VRB5      30.06S HX  97
Dallas DFW     MOSUNNY   93  71  48 SW9       30.01F HX 100
Houston Bush   PTSUNNY   88  75  65 CALM      30.05F HX  97
Wash National  MOSUNNY   91  70  49 E5        29.95F HX  96
Wash Dulles    PTSUNNY   89  70  53 VRB6      29.96F HX  94
Baltimore      MOSUNNY   91  70  49 NW5       29.94S HX  96
Philadelphia   PTSUNNY   90  67  46 NW5       29.93F HX  93
Newark         MOSUNNY   90  65  43 NW10G21   29.91S HX  92
Laguardia      MOSUNNY   87  68  52 NW12      29.89F HX  90
J F K          MOSUNNY   90  67  46 W9        29.90F HX  93
Boston         MOSUNNY   86  55  34 W10       29.84F
Pittsburg      CLOUDY    83  71  67 E3        30.00S
Akron          PTSUNNY   86  71  60 NW6       30.01S HX  91
Cleveland      PTSUNNY   86  74  67 VRB3      30.01S HX  94
Cincinnati     CLOUDY    76  74  93 S6        30.04R
Columbus       LGT RAIN  71  71 100 SE3       29.98F
Detroit        PTSUNNY   85  69  58 NE7       29.99F
Chicago O`Hare CLOUDY    84  69  60 SE8       30.00R
Minneapolis    CLOUDY    74  67  78 SE9       29.91F
Indianapolis   PTSUNNY   80  71  74 S9        30.01S
Toronto Canada PTSUNNY   81  59  47 NW18      29.92F

$$




USA.gov is the U.S. government's official web portal to all federal, state and local government web resources and services.